When you browse on this site, cookies collect data to enhance your experience and personalize the content and advertising you see.
Visit our Privacy Policy to learn more. By continuing to use the site, you agree to this use of cookies and data.
  • In Latvia
  • List of Countries
  • For 7 days
  • Water Temperature
  • Satellite Maps
  • Weather Map
  • Weather Widgets
  • user-avatar
    Login

    Hourly Weather Lucera

    Today, 20 January, Sunday

    Time Temperature Precipitation Wind Pressure Humidity
    00:00 +5°C° 0 mm 2 mps 740 mmHg 87%
    01:00 +4°C° 0 mm 2 mps 740 mmHg 88%
    02:00 +4°C° 0 mm 2 mps 740 mmHg 88%
    03:00 +4°C° 0 mm 2 mps 740 mmHg 88%
    04:00 +4°C° 0 mm 2 mps 740 mmHg 88%
    05:00 +5°C° 0 mm 1 mps 740 mmHg 88%
    06:00 +5°C° 0 mm 1 mps 740 mmHg 88%
    07:00 +5°C° 0 mm 1 mps 740 mmHg 87%
    08:00 +6°C° 0 mm 1 mps 741 mmHg 82%
    09:00 +7°C° 0 mm 0 mps 741 mmHg 77%
    10:00 +8°C° 0 mm 0 mps 741 mmHg 72%
    11:00 +9°C° 0 mm 0 mps 741 mmHg 68%
    12:00 +11°C° 0 mm 1 mps 741 mmHg 65%
    13:00 +11°C° 0 mm 1 mps 741 mmHg 61%
    14:00 +11°C° 0.1 mm 1 mps 740 mmHg 65%
    15:00 +10°C° 0.1 mm 2 mps 740 mmHg 69%
    16:00 +9°C° 0.1 mm 2 mps 740 mmHg 73%
    17:00 +9°C° 0.3 mm 1 mps 740 mmHg 78%
    18:00 +9°C° 0.3 mm 1 mps 740 mmHg 83%
    19:00 +8°C° 0.3 mm 1 mps 741 mmHg 88%
    20:00 +7°C° 0.1 mm 1 mps 741 mmHg 89%
    21:00 +7°C° 0.1 mm 1 mps 741 mmHg 91%
    22:00 +7°C° 0.1 mm 1 mps 741 mmHg 92%
    23:00 +6°C° 0 mm 1 mps 741 mmHg 92%

    Tomorrow, 21 January, Monday

    Time Temperature Precipitation Wind Pressure Humidity
    00:00 +5°C° 0 mm 0 mps 741 mmHg 92%
    01:00 +5°C° 0 mm 0 mps 741 mmHg 92%
    02:00 +5°C° 0 mm 0 mps 741 mmHg 92%
    03:00 +5°C° 0 mm 0 mps 740 mmHg 92%
    04:00 +4°C° 0 mm 0 mps 740 mmHg 92%
    05:00 +4°C° 0 mm 0 mps 740 mmHg 92%
    06:00 +4°C° 0 mm 0 mps 740 mmHg 92%
    07:00 +4°C° 0 mm 0 mps 740 mmHg 92%
    08:00 +6°C° 0 mm 0 mps 741 mmHg 88%
    09:00 +7°C° 0 mm 0 mps 741 mmHg 84%
    10:00 +8°C° 0 mm 0 mps 741 mmHg 80%
    11:00 +10°C° 0 mm 1 mps 741 mmHg 77%
    12:00 +10°C° 0 mm 1 mps 741 mmHg 73%
    13:00 +11°C° 0 mm 1 mps 740 mmHg 70%
    14:00 +11°C° 0 mm 1 mps 740 mmHg 72%
    15:00 +10°C° 0 mm 2 mps 740 mmHg 75%
    16:00 +9°C° 0 mm 2 mps 740 mmHg 77%
    17:00 +9°C° 0 mm 2 mps 740 mmHg 83%
    18:00 +9°C° 0 mm 1 mps 740 mmHg 88%
    19:00 +8°C° 0 mm 1 mps 740 mmHg 93%
    20:00 +7°C° 0 mm 1 mps 740 mmHg 94%
    21:00 +6°C° 0 mm 2 mps 739 mmHg 95%
    22:00 +6°C° 0 mm 2 mps 739 mmHg 96%
    23:00 +6°C° 0.1 mm 2 mps 739 mmHg 96%

    Day after tomorrow, 22 January, Tuesday

    Time Temperature Precipitation Wind Pressure Humidity
    00:00 +6°C° 0.1 mm 2 mps 739 mmHg 96%
    01:00 +6°C° 0.1 mm 2 mps 738 mmHg 96%
    02:00 +5°C° 0.3 mm 3 mps 738 mmHg 95%
    03:00 +5°C° 0.3 mm 3 mps 737 mmHg 95%
    04:00 +5°C° 0.3 mm 3 mps 737 mmHg 94%
    05:00 +5°C° 0.4 mm 3 mps 736 mmHg 94%
    06:00 +6°C° 0.4 mm 2 mps 736 mmHg 94%
    07:00 +6°C° 0.4 mm 2 mps 736 mmHg 93%
    08:00 +6°C° 0.1 mm 2 mps 735 mmHg 92%
    09:00 +7°C° 0.1 mm 2 mps 735 mmHg 91%
    10:00 +7°C° 0.1 mm 2 mps 735 mmHg 90%
    11:00 +8°C° 0 mm 2 mps 734 mmHg 87%
    12:00 +8°C° 0 mm 2 mps 734 mmHg 85%
    13:00 +9°C° 0 mm 2 mps 733 mmHg 82%
    14:00 +8°C° 0.1 mm 2 mps 733 mmHg 84%
    15:00 +8°C° 0.1 mm 2 mps 732 mmHg 86%
    16:00 +8°C° 0.1 mm 2 mps 731 mmHg 88%
    17:00 +7°C° 0.1 mm 2 mps 731 mmHg 89%
    18:00 +7°C° 0.1 mm 2 mps 731 mmHg 90%
    19:00 +6°C° 0.1 mm 2 mps 730 mmHg 91%
    20:00 +6°C° 0.2 mm 2 mps 730 mmHg 91%
    21:00 +6°C° 0.2 mm 2 mps 730 mmHg 91%
    22:00 +6°C° 0.2 mm 2 mps 729 mmHg 91%
    23:00 +6°C° 0.5 mm 2 mps 729 mmHg 91%

    23 January, Wednesday

    Time Temperature Precipitation Wind Pressure Humidity
    00:00 +6°C° 0.5 mm 2 mps 728 mmHg 92%
    01:00 +6°C° 0.5 mm 2 mps 728 mmHg 93%
    02:00 +4°C° 1.7 mm 3 mps 728 mmHg 92%
    03:00 +4°C° 1.7 mm 3 mps 727 mmHg 92%
    04:00 +4°C° 1.7 mm 3 mps 727 mmHg 91%
    05:00 +4°C° 0.4 mm 3 mps 727 mmHg 90%
    06:00 +4°C° 0.4 mm 3 mps 727 mmHg 88%
    07:00 +5°C° 0.4 mm 2 mps 728 mmHg 87%
    08:00 +5°C° 0 mm 3 mps 728 mmHg 81%
    09:00 +6°C° 0 mm 4 mps 728 mmHg 76%
    10:00 +7°C° 0 mm 5 mps 729 mmHg 70%
    11:00 +8°C° 0 mm 5 mps 729 mmHg 66%
    12:00 +9°C° 0 mm 5 mps 729 mmHg 62%
    13:00 +11°C° 0 mm 4 mps 729 mmHg 58%
    14:00 +10°C° 0 mm 4 mps 729 mmHg 61%
    15:00 +10°C° 0 mm 3 mps 729 mmHg 64%
    16:00 +10°C° 0 mm 3 mps 728 mmHg 66%
    17:00 +9°C° 0 mm 2 mps 728 mmHg 69%
    18:00 +8°C° 0 mm 2 mps 728 mmHg 73%
    19:00 +7°C° 0 mm 2 mps 728 mmHg 76%
    20:00 +6°C° 0 mm 2 mps 728 mmHg 77%
    21:00 +6°C° 0 mm 2 mps 728 mmHg 78%
    22:00 +5°C° 0 mm 2 mps 728 mmHg 79%
    23:00 +5°C° 0 mm 2 mps 728 mmHg 80%

    24 January, Thursday

    Time Temperature Precipitation Wind Pressure Humidity
    00:00 +5°C° 0 mm 2 mps 727 mmHg 80%
    01:00 +6°C° 0 mm 1 mps 727 mmHg 81%
    02:00 +6°C° 0 mm 1 mps 727 mmHg 83%
    03:00 +6°C° 0 mm 1 mps 726 mmHg 84%
    04:00 +5°C° 0 mm 1 mps 726 mmHg 86%
    05:00 +5°C° 0.2 mm 1 mps 726 mmHg 88%
    06:00 +5°C° 0.2 mm 1 mps 726 mmHg 90%
    07:00 +5°C° 0.2 mm 1 mps 726 mmHg 93%
    08:00 +6°C° 1.4 mm 1 mps 725 mmHg 93%
    09:00 +6°C° 1.4 mm 1 mps 725 mmHg 94%
    10:00 +6°C° 1.4 mm 2 mps 725 mmHg 94%
    11:00 +5°C° 2.1 mm 3 mps 725 mmHg 90%
    12:00 +7°C° 2.1 mm 3 mps 724 mmHg 87%
    13:00 +7°C° 2.1 mm 4 mps 724 mmHg 83%
    14:00 +7°C° 0.7 mm 4 mps 724 mmHg 85%
    15:00 +7°C° 0.7 mm 3 mps 724 mmHg 87%
    16:00 +7°C° 0.7 mm 3 mps 723 mmHg 89%
    17:00 +7°C° 0.7 mm 3 mps 723 mmHg 91%
    18:00 +7°C° 0.7 mm 3 mps 724 mmHg 93%
    19:00 +5°C° 0.7 mm 3 mps 724 mmHg 95%
    20:00 +5°C° 3 mm 3 mps 724 mmHg 95%
    21:00 +5°C° 3 mm 4 mps 724 mmHg 96%
    22:00 +5°C° 3 mm 4 mps 724 mmHg 97%
    23:00 +5°C° 2.6 mm 4 mps 724 mmHg 95%

    25 January, Friday

    Time Temperature Precipitation Wind Pressure Humidity
    00:00 +5°C° 2.6 mm 5 mps 724 mmHg 93%
    01:00 +4°C° 2.6 mm 6 mps 725 mmHg 92%
    02:00 +4°C° 2.5 mm 6 mps 725 mmHg 92%
    03:00 +4°C° 2.5 mm 6 mps 725 mmHg 92%
    04:00 +4°C° 2.5 mm 6 mps 725 mmHg 92%
    05:00 +4°C° 0.8 mm 6 mps 725 mmHg 92%
    06:00 +4°C° 0.8 mm 6 mps 726 mmHg 92%
    07:00 +4°C° 0.8 mm 6 mps 726 mmHg 92%
    08:00 +4°C° 0.5 mm 6 mps 727 mmHg 92%
    09:00 +4°C° 0.5 mm 6 mps 728 mmHg 92%
    10:00 +5°C° 0.5 mm 6 mps 728 mmHg 92%
    11:00 +5°C° 1.2 mm 6 mps 729 mmHg 89%
    12:00 +6°C° 1.2 mm 5 mps 729 mmHg 86%
    13:00 +6°C° 1.2 mm 5 mps 729 mmHg 83%
    14:00 +5°C° 0 mm 6 mps 730 mmHg 80%
    15:00 +5°C° 0 mm 7 mps 730 mmHg 77%
    16:00 +6°C° 0 mm 8 mps 731 mmHg 74%
    17:00 +5°C° 0 mm 7 mps 731 mmHg 76%
    18:00 +4°C° 0 mm 6 mps 732 mmHg 78%
    19:00 +4°C° 0 mm 6 mps 733 mmHg 81%
    20:00 +4°C° 0 mm 6 mps 733 mmHg 80%
    21:00 +3°C° 0 mm 6 mps 734 mmHg 80%
    22:00 +3°C° 0 mm 6 mps 734 mmHg 80%
    23:00 +3°C° 0 mm 6 mps 735 mmHg 80%
    Show more